Richmond, VA

8:00 AM EDT on October 24, 2017 (GMT -0400)
Richmond International

Weather History for KRIC - August, 2014

Change the Weather History Date:

Sunday, August 31, 2014

  Actual Average Record
Temperature  
Mean Temperature 84 °F 76 °F  
Max Temperature 94 °F 86 °F 102 °F (1953)
Min Temperature 74 °F 65 °F 46 °F (1934)
Degree Days  
Heating Degree Days 0 0  
Month to date heating degree days 0 0  
Since 1 June heating degree days 0 8  
Since 1 July heating degree days 0 1  
Cooling Degree Days 19 11  
Month to date cooling degree days 358 388  
Year to date cooling degree days 1380 1307  
Since 1 June cooling degree days 1172 1146  
Growing Degree Days 33 (Base 50)    
Moisture  
Dew Point 71 °F    
Average Humidity 70    
Maximum Humidity 93    
Minimum Humidity 46    
Precipitation  
Precipitation 0.00 in 0.13 in 1.88 in (1964)
Month to date precipitation 3.61 4.66  
Year to date precipitation 25.67 29.99  
Snow  
Snow 0.00 in 0.00 in 0.00 in (2002)
Month to date snowfall 0.0 0.0  
Since 1 July snowfall 0.0 0.0  
Snow Depth 0.00 in    
Sea Level Pressure  
Sea Level Pressure 30.11 in    
Wind  
Wind Speed 9 mph (SSW)    
Max Wind Speed 18 mph    
Max Gust Speed 28 mph    
Visibility 9 miles    
Events      
T = Trace of Precipitation, MM = Missing Value Source: NWS Daily Summary

Daily Weather History Graph

Daily Weather History Graph

Search for Another Location

Airport or City:

Trip Planner

Search our weather history database for the weather conditions in past years. The results will help you decide how hot, cold, wet, or windy it might be!

Date:

Astronomy

Aug. 31, 2014 Rise Set
Actual Time 6:38 AM EDT 7:39 PM EDT
Civil Twilight 6:11 AM EDT 8:06 PM EDT
Nautical Twilight 5:40 AM EDT 8:38 PM EDT
Astronomical Twilight 5:06 AM EDT 9:11 PM EDT
Moon 12:15 PM EDT (8/31) 11:00 PM EDT (8/31)
Length of Visible Light 13h 54m
Length of Day
13h 01m
Waxing Crescent, 32% of the Moon is Illuminated
Aug 31
Waxing Crescent
Sep 2
First Quarter
Sep 8
Full
Sep 15
Last Quarter
Sep 24
New

Hourly Weather History & Observations

Time (EDT) Temp. Heat Index Dew Point Humidity Pressure Visibility Wind Dir Wind Speed Gust Speed Precip Events Conditions
12:54 AM 77.0 °F - 73.0 °F 88% 30.16 in 8.0 mi SSE 4.6 mph - N/A   Partly Cloudy
1:54 AM 75.9 °F - 72.0 °F 87% 30.16 in 8.0 mi South 5.8 mph - N/A   Partly Cloudy
2:54 AM 75.0 °F - 72.0 °F 90% 30.15 in 7.0 mi South 5.8 mph - N/A   Partly Cloudy
3:54 AM 75.0 °F - 72.0 °F 90% 30.14 in 7.0 mi South 5.8 mph - N/A   Partly Cloudy
4:54 AM 73.9 °F - 71.1 °F 91% 30.14 in 7.0 mi South 5.8 mph - N/A   Partly Cloudy
5:54 AM 73.9 °F - 71.1 °F 91% 30.15 in 8.0 mi South 6.9 mph - N/A   Partly Cloudy
6:54 AM 73.9 °F - 71.1 °F 91% 30.17 in 7.0 mi South 4.6 mph - N/A   Mostly Cloudy
7:54 AM 75.9 °F - 72.0 °F 87% 30.17 in 9.0 mi SSW 10.4 mph - N/A   Scattered Clouds
8:14 AM 77.0 °F - 71.6 °F 83% 30.17 in 10.0 mi SSW 10.4 mph - N/A   Mostly Cloudy
8:54 AM 79.0 °F - 72.0 °F 79% 30.17 in 10.0 mi SSW 10.4 mph - N/A   Mostly Cloudy
9:54 AM 82.9 °F 88.0 °F 72.0 °F 69% 30.15 in 10.0 mi SW 9.2 mph - N/A   Mostly Cloudy
10:54 AM 86.0 °F 91.5 °F 71.1 °F 61% 30.14 in 10.0 mi SW 11.5 mph - N/A   Mostly Cloudy
11:54 AM 89.1 °F 96.0 °F 72.0 °F 57% 30.11 in 10.0 mi South 12.7 mph 20.7 mph N/A   Mostly Cloudy
12:54 PM 91.0 °F 96.6 °F 70.0 °F 50% 30.10 in 10.0 mi SSW 15.0 mph - N/A   Mostly Cloudy
1:54 PM 91.9 °F 98.4 °F 71.1 °F 50% 30.09 in 10.0 mi SW 11.5 mph - N/A   Mostly Cloudy
2:54 PM 91.0 °F 95.6 °F 69.1 °F 48% 30.08 in 10.0 mi SSW 10.4 mph - N/A   Mostly Cloudy
3:54 PM 91.9 °F 96.9 °F 69.1 °F 47% 30.05 in 10.0 mi SSW 16.1 mph 21.9 mph N/A   Mostly Cloudy
4:54 PM 93.0 °F 99.0 °F 70.0 °F 47% 30.04 in 10.0 mi SW 10.4 mph - N/A   Scattered Clouds
5:54 PM 90.0 °F 94.5 °F 69.1 °F 50% 30.03 in 10.0 mi SSW 12.7 mph 20.7 mph N/A   Scattered Clouds
6:54 PM 88.0 °F 92.1 °F 69.1 °F 53% 30.03 in 10.0 mi South 16.1 mph - N/A   Mostly Cloudy
7:54 PM 82.9 °F 87.0 °F 70.0 °F 65% 30.05 in 10.0 mi South 4.6 mph - N/A   Scattered Clouds
8:54 PM 82.0 °F 86.3 °F 71.1 °F 69% 30.05 in 10.0 mi South 5.8 mph - N/A   Mostly Cloudy
9:54 PM 80.1 °F 83.6 °F 71.1 °F 74% 30.06 in 10.0 mi South 4.6 mph - N/A   Mostly Cloudy
10:54 PM 79.0 °F - 72.0 °F 79% 30.06 in 10.0 mi South 5.8 mph - N/A   Overcast
11:54 PM 80.1 °F 83.8 °F 72.0 °F 76% 30.06 in 10.0 mi South 3.5 mph - N/A   Overcast